Simultaneous Nadir Overpasses (SNOs) Predictions

Prediction of SNOs over PacNW region [( 10.00, 139.50) to ( 22.70, 165.60)] between AQUA and NPP Satellites:

Table of predicted SNOs over PacNW region for the next 30.0 days since TLE Epoch: 7/12/2019
Index Date (AQUA) Time (AQUA) AQUA Lat,Lon Date (NPP) Time (NPP) NPP Lat,Lon Distance(km) Time Diff (sec)
1 07/17/2019 15:09:47 22.59, 159.86 07/17/2019 15:11:21 23.17, 157.19 281.09 94
2 07/20/2019 03:31:36 22.69, 147.55 07/20/2019 03:28:06 24.37, 145.28 297.03 210
3 07/25/2019 15:59:09 22.61, 147.51 07/25/2019 16:02:06 23.26, 144.52 314.69 177
4 08/02/2019 15:09:37 22.63, 159.89 08/02/2019 15:11:23 23.22, 157.20 283.53 106
5 08/05/2019 03:31:25 22.65, 147.58 08/05/2019 03:27:56 23.64, 145.47 242.57 209




NCC Satellite Simultaneous Nadir Overpasses (SNOs) Prediction Service
